SCP
0 0 0 0 0 0 -0 -0 -0 -0 -0 -0 -0 -0 -0 -0 -0 -0 -0 0 0 -0 -0 -0 -0 -0 -0 -0 -0 -0 -0 -0 -0 -0 -0 -0 -0 -0 -0 -0 0 -0 -0
-0 0 -0 0 0 0 -0 -0 -0 -0 -0 -0 -0 -0 -0 -0 -0 -0 -0 -0 -0 -0 -0 -0 -0 -0 -0 -0 -0 -0 -0 -0 -0 -0 -0 -0 -0 -0 -0 -0 -0 -0 -0
-0 0 -0 0 0 0 -0 -0 -0 -0 -0 -0 -0 -0 -0 -0 -0 -0 -0 -0 -0 -0 -0 -0 -0 -0 -0 -0 -0 -0 -0 -0 0 -0 -0 0 -0 -0 -0 -0 -0 -0 -0
-0 0 -0 -0 -0 0 -0 -0 -0 -0 -0 -0 -0 -0 -0 -0 -0 0 -0 -0 -0 -0 -0 -0 -0 -0 -0 -0 -0 0 -0 -0 -0 0 -0 -0 -0 -0 -0 -0 -0 -0 -0
-0 -0 0 -0 -0 -0 -0 -0 -0 -0 -0 -0 -0 -0 -0 0 -0 0 -0 -0 -0 -0 -0 -0 -0 -0 0 0 -0 -0 -0 -0 -0 -0 0 0 -0 -0 -0 -0 -0 -0 -0
-0 -0 -0 -0 -0 -0 -0 -0 -0 -0 -0 -0 -0 0 0 0 -0 -0 -0 -0 -0 -0 -0 -0 -0 0 0 -0 -0 -0 -0 -0 -0 0 -0 -0 -0 -0 -0 -0 -0 -0 -0
-0 -0 -0 -0 -0 -0 -0 -0 -0 -0 -0 -0 0 0 0 0 -0 0 -0 0 -0 0 0 0 0 0 0 -0 -0 -0 0 0 0 -0 -0 -0 -0 -0 -0 -0 -0 -0 0
0 -0 0 -0 -0 -0 -0 -0 -0 -0 -0 0 0 0 0 0 0 -0 0 -0 0 0 0 0 0 0 0 0 -0 -0 0 -0 0 0 0 0 -0 -0 -0 -0 -0 -0 -0
0 -0 0 0 0 -0 -0 -0 -0 -0 -0 -0 0 0 0 0 0 0 0 0 0 0 0 0 0 0 -0 0 -0 -0 -0 -0 -0 0 -0 -0 -0 -0 -0 -0 -0 -0 -0
-0 -0 -0 0 0 0 -0 -0 -0 -0 -0 -0 0 0 0 0 0 0 0 0 0 0 0 0 -0 -0 0 0 0 -0 -0 -0 -0 -0 0 -0 -0 -0 0 -0 -0 -0 -0
0 -0 -0 0 -0 0 -0 -0 -0 0 0 0 0 0 0 0 -0 -0 0 -0 -0 -0 -0 0 0 0 1 1 0 0 -0 0 0 0 0 -0 -0 0 -0 -0 -0 -0 -0
-0 -0 0 -0 -0 0 -0 0 -0 -0 0 0 0 0 0 -0 0 -0 -0 -0 -0 -0 0 0 0 0 0 2 1 0 -0 -0 0 -0 -0 0 0 -0 -0 -0 -0 -0 -0
-0 0 -0 -0 -0 -0 0 0 -0 0 0 0 0 0 0 0 -0 0 0 0 0 -0 -0 -0 0 0 0 1 1 0 0 -0 -0 -0 0 0 -0 -0 -0 -0 -0 -0 0
-0 0 -0 0 -0 -0 0 -0 0 -0 0 0 0 0 0 -0 0 0 0 0 -0 0 0 0 0 0 0 1 1 0 0 0 0 0 0 -0 0 0 -0 -0 -0 -0 -0
-0 -0 -0 0 -0 -0 0 -0 0 -0 0 0 0 0 0 0 0 -0 0 -0 -0 0 0 0 0 0 0 0 1 0 0 0 0 0 0 -0 0 0 -0 0 0 -0 -0
-0 -0 0 -0 0 0 0 0 0 0 -0 0 -0 -0 0 0 0 0 0 -0 0 -0 -0 -0 0 0 0 0 0 0 0 0 -0 0 0 0 -0 -0 -0 -0 -0 -0 -0
-0 -0 -0 -0 0 0 0 0 0 0 0 0 0 0 0 -0 0 0 0 0 0 0 0 0 0 0 0 0 1 0 0 0 0 0 -0 0 0 0 0 0 0 0 -0
0 -0 0 -0 0 -0 0 0 0 0 0 0 0 -0 0 0 -0 0 -0 0 0 -0 0 -0 0 0 0 0 0 0 0 0 0 -0 0 -0 -0 0 0 0 0 0 0
-0 -0 -0 0 -0 0 0 0 0 0 0 0 0 0 -0 -0 0 -0 -0 0 0 -0 0 -0 -0 0 -0 0 0 0 0 0 0 0 -0 0 0 0 -0 0 0 0 0
-0 -0 -0 0 -0 0 0 0 0 0 0 0 0 0 0 -0 0 0 -0 0 0 -0 -0 0 -0 -0 -0 -0 -0 -0 -0 -0 0 0 0 0 0 0 0 0 0 0 0
-0 -0 -0 0 -0 0 0 0 0 0 0 0 0 0 0 0 -0 -0 -0 0 -0 0 -0 -0 -0 0 0 -0 0 -0 0 0 -0 -0 0 -0 0 0 0 0 0 0 0
-0 -0 -0 -0 -0 -0 -0 0 0 0 0 0 0 0 0 -0 0 0 0 -0 0 0 -0 0 -0 0 -0 0 0 0 0 0 0 -0 0 0 0 0 0 -0 0 0 0
-0 -0 0 0 0 0 -0 0 0 0 1 0 0 0 0 0 0 0 0 0 0 0 -0 -0 -0 -0 0 -0 0 0 0 0 -0 0 0 0 0 0 0 -0 0 0 0
-0 -0 -0 0 -0 0 -0 -0 -0 0 0 0 -0 0 0 0 -0 -0 0 0 -0 0 -0 -0 -0 0 0 0 0 0 0 0 0 0 0 0 0 0 0 0 0 0 0
-0 -0 -0 -0 0 0 -0 0 0 0 0 0 0 0 0 0 0 0 0 0 -0 -0 -0 -0 0 0 0 0 0 0 0 0 -0 0 0 0 0 0 0 0 0 0 0
-0 -0 -0 -0 -0 -0 0 0 0 0 0 0 0 0 0 0 0 -0 0 0 0 -0 -0 -0 -0 -0 -0 -0 0 0 0 0 0 0 0 0 0 0 0 0 0 0 0
Wind_Speed_500mb
15 27 27 25 23 20 20 22 21 20 24 25 25 24 20 15 16 18 17 17 15 15 13 15 14 17 18 19 16 15 15 18 24 28 28 25 24 29 31 32 31 26 30
27 28 28 27 27 24 21 20 21 20 22 23 21 20 16 16 18 17 16 17 16 18 17 17 15 16 15 14 17 20 21 24 29 31 36 31 22 22 27 29 24 24 25
29 32 30 27 26 25 22 20 20 20 20 18 18 17 17 18 22 20 20 18 16 14 16 16 15 16 16 19 21 20 22 29 30 31 28 14 19 20 20 22 23 24 24
26 33 30 28 26 25 23 20 19 18 19 19 19 19 18 20 18 20 21 19 19 19 18 19 20 22 23 22 22 23 24 23 26 29 17 8 18 20 17 21 20 20 21
35 28 27 26 26 24 20 17 15 16 18 20 18 21 20 17 15 16 19 18 19 19 19 21 22 23 21 18 18 18 21 25 28 22 14 19 14 14 11 17 19 18 16
39 30 24 22 20 18 17 10 13 17 21 26 25 17 19 18 17 16 17 17 18 21 21 25 21 20 20 18 19 19 20 20 23 15 15 10 13 11 9 12 15 13 15
25 30 27 21 19 20 17 19 18 20 23 24 25 21 18 14 13 13 13 15 17 20 19 20 20 21 21 23 23 23 21 21 18 20 13 7 8 8 8 11 11 8 9
32 24 27 26 26 27 25 25 23 24 29 22 29 19 12 14 11 9 11 13 15 20 19 18 20 22 23 24 22 21 19 18 16 22 14 11 9 10 6 6 10 9 8
30 22 27 28 28 25 21 28 27 34 36 35 22 17 14 15 17 8 10 12 15 18 17 17 18 19 19 18 14 16 22 17 20 11 8 20 17 8 5 4 2 6 7
31 29 25 27 28 29 27 35 37 37 36 27 19 17 15 14 14 11 10 9 14 15 14 15 17 19 14 11 6 4 25 18 10 11 9 17 23 7 2 3 4 5 5
34 28 19 22 27 36 35 38 38 28 27 21 20 20 19 19 10 7 7 3 15 21 23 21 16 17 16 7 14 27 15 17 15 11 5 18 26 8 3 2 1 2 3
34 29 26 28 23 31 39 37 30 30 28 17 22 18 13 25 16 2 4 14 21 23 20 19 14 14 18 9 13 15 15 14 2 7 10 14 23 8 3 3 3 7 6
37 40 29 31 28 30 39 35 31 31 22 23 20 10 2 4 7 16 14 8 13 12 14 5 14 13 14 9 8 17 2 17 13 13 16 15 17 2 2 4 8 11 5
40 41 39 34 23 25 40 33 27 28 23 12 22 13 18 27 17 21 22 16 6 25 38 27 14 17 7 12 7 8 8 18 9 10 12 8 5 6 4 3 9 14 9
36 34 38 33 32 27 29 34 28 24 21 24 14 19 15 11 16 11 13 11 17 3 15 15 13 11 5 7 11 4 4 7 11 10 5 4 10 11 7 6 11 15 12
37 41 50 34 31 28 31 25 23 22 20 23 16 17 10 12 8 15 6 9 5 11 15 9 2 18 20 12 6 8 10 12 27 16 17 12 15 17 14 12 15 18 16
37 39 37 33 31 36 29 30 13 42 15 17 23 16 31 24 17 12 8 4 10 12 5 9 11 9 22 9 5 14 11 8 14 15 5 3 8 11 18 19 19 22 22
40 40 46 33 25 25 23 16 13 15 22 32 11 9 25 14 17 13 4 12 13 3 2 11 27 18 25 10 5 8 3 3 12 19 9 16 24 7 5 18 17 28 34
34 48 42 40 38 24 24 23 17 24 24 18 13 16 11 16 13 12 8 25 16 4 6 7 13 12 21 12 5 3 13 14 13 5 17 18 17 13 14 15 13 18 29
39 38 41 40 32 30 24 22 23 23 13 26 15 23 10 13 17 18 12 28 13 6 16 5 8 18 21 18 24 13 7 2 16 13 14 6 16 20 19 14 7 12 22
45 42 39 47 43 35 28 25 19 15 12 17 25 19 19 17 21 22 11 24 19 8 13 16 11 20 18 12 8 23 11 10 6 6 8 22 19 8 12 3 11 14 21
46 51 42 44 43 39 30 27 20 25 22 26 23 22 13 16 17 13 12 9 15 10 21 13 10 13 5 10 13 28 7 4 6 6 4 5 12 8 10 9 10 14 13
41 51 58 41 45 43 33 24 30 11 19 16 23 16 16 19 14 15 13 18 11 12 14 5 7 7 7 7 11 8 14 2 23 3 8 8 15 12 3 14 13 12 9
41 40 47 52 43 46 39 32 23 20 25 18 26 22 21 14 16 17 7 17 11 9 6 13 11 10 2 9 11 5 10 10 14 13 18 6 15 9 2 8 10 12 7
55 49 47 47 46 41 45 31 30 31 25 19 7 18 22 14 18 13 10 5 13 24 15 11 1 9 10 6 11 5 5 14 9 15 15 5 2 4 13 8 7 8 9
59 54 50 45 46 43 39 40 34 30 22 24 24 19 14 23 12 19 14 6 12 12 18 8 11 5 3 4 6 9 17 15 16 8 6 4 2 17 4 10 4 5 8
Wind_Direction_500mb
159 140 136 134 131 127 126 121 113 108 105 107 102 91 81 93 106 110 110 111 120 116 114 118 119 109 109 110 104 100 96 91 88 87 81 81 91 96 89 92 93 95 102
164 144 136 131 128 123 121 127 119 114 114 117 105 85 84 87 89 105 118 123 118 108 114 116 113 108 107 101 94 91 89 86 82 84 76 64 70 91 93 98 90 97 106
151 142 137 132 122 120 116 116 124 133 128 126 108 98 91 91 96 96 105 118 119 123 127 121 110 111 107 101 95 92 89 93 91 83 72 37 75 86 96 95 101 104 106
154 143 143 133 130 123 121 121 127 139 147 140 125 110 97 106 109 107 106 104 113 114 120 115 113 111 109 106 101 95 95 101 96 84 66 98 68 78 94 108 114 120 123
140 157 142 142 137 128 122 118 124 135 156 147 127 113 106 111 116 116 125 127 125 122 122 125 121 116 115 104 100 99 107 102 89 89 96 61 55 59 101 111 112 126 134
145 168 148 160 153 142 139 140 130 146 151 145 134 115 104 111 119 123 126 134 135 136 132 127 125 122 111 102 89 91 107 105 96 102 96 57 49 70 100 125 128 134 141
183 141 141 151 147 145 134 129 120 155 151 150 153 120 116 123 138 146 150 146 150 143 134 132 135 115 110 95 93 91 97 85 89 130 131 35 56 91 109 129 134 145 148
143 135 143 142 142 136 129 132 121 129 143 156 143 124 129 134 122 158 148 154 148 144 135 130 125 114 104 98 99 95 103 104 116 76 143 45 69 74 83 130 140 154 164
140 144 139 146 150 151 144 145 134 129 139 138 128 124 137 145 157 157 128 149 147 159 152 132 116 116 115 104 107 119 117 93 82 118 86 44 40 42 81 75 37 157 177
135 142 146 141 144 146 139 151 142 140 142 132 131 130 135 136 119 116 117 115 137 151 157 158 155 145 144 124 29 171 122 120 133 129 153 13 10 18 355 7 302 227 205
150 145 140 134 136 155 144 142 145 148 133 134 131 127 141 106 80 71 120 208 144 139 156 156 155 154 176 192 267 315 171 138 102 55 287 303 329 334 38 47 310 318 261
156 154 168 147 156 139 163 156 147 124 126 133 133 138 168 190 133 176 158 147 141 150 142 131 108 197 196 255 304 15 207 239 213 3 247 291 324 336 83 112 61 16 327
162 161 180 145 170 156 163 152 135 137 139 141 151 195 275 282 201 197 133 128 168 144 163 104 74 185 190 322 300 37 161 228 253 326 260 298 315 351 81 45 13 5 8
179 187 164 159 159 144 162 153 144 137 151 124 160 169 192 186 226 235 227 275 284 239 159 68 110 117 138 5 333 357 44 108 72 247 263 287 207 120 114 22 3 2 6
169 153 159 166 158 159 144 145 153 155 198 205 199 175 162 158 223 249 227 267 48 290 217 25 97 91 89 136 181 193 128 197 184 214 206 125 107 91 86 33 15 8 5
168 166 168 160 187 185 168 170 150 177 177 150 176 216 229 157 187 275 156 25 291 342 41 226 127 96 114 95 288 103 95 170 161 192 224 64 65 75 78 49 19 17 21
164 170 171 162 183 177 164 157 179 163 155 152 190 237 173 202 203 202 315 245 238 216 247 295 285 224 119 92 347 55 9 26 140 129 24 148 82 71 74 48 28 23 28
170 170 170 166 163 159 156 164 149 213 175 163 210 233 184 196 193 187 291 284 288 139 261 322 313 47 74 58 11 39 272 47 90 112 198 168 167 120 54 66 40 31 30
165 169 172 181 167 177 179 173 143 169 166 141 191 230 227 204 208 184 213 269 253 230 299 232 280 30 44 26 344 41 310 355 355 304 183 178 141 23 62 78 36 23 34
165 166 176 179 164 185 186 171 160 174 184 145 176 206 240 217 230 204 210 264 257 248 295 246 242 26 56 8 14 70 244 247 326 357 341 23 87 54 32 60 360 19 27
168 173 183 177 190 187 174 163 156 181 171 163 204 217 244 218 254 236 218 273 267 257 291 309 339 351 19 3 89 227 296 256 211 201 336 28 84 119 118 295 52 27 7
178 167 181 188 194 187 178 175 223 218 216 205 219 224 233 218 225 233 235 257 286 257 307 315 307 328 314 77 97 73 28 3 358 84 204 268 153 140 122 19 73 74 21
170 182 185 186 189 185 170 195 211 215 202 218 171 219 213 228 223 246 248 193 242 246 272 301 287 306 326 33 14 348 177 128 28 120 156 210 109 136 147 47 116 77 56
183 192 181 181 196 180 182 188 216 206 211 233 213 224 202 218 204 262 247 204 200 173 230 246 199 279 167 70 62 174 37 51 106 198 148 28 75 129 145 116 46 82 61
184 188 198 195 198 194 190 186 204 210 208 209 214 217 194 243 212 225 253 203 175 192 191 287 14 216 192 191 18 77 12 16 111 86 83 110 332 81 39 102 84 71 90
185 186 196 212 211 198 208 199 200 207 207 204 222 192 241 244 273 215 250 190 194 231 202 247 262 205 257 285 134 103 2 20 78 34 46 36 315 159 60 105 148 111 148
Wind_Speed_850mb
15 27 27 25 23 20 20 22 21 20 24 25 25 24 20 15 16 18 17 17 15 15 13 15 14 17 18 19 16 15 15 18 24 28 28 25 24 29 31 32 31 26 30
27 28 28 27 27 24 21 20 21 20 22 23 21 20 16 16 18 17 16 17 16 18 17 17 15 16 15 14 17 20 21 24 29 31 36 31 22 22 27 29 24 24 25
29 32 30 27 26 25 22 20 20 20 20 18 18 17 17 18 22 20 20 18 16 14 16 16 15 16 16 19 21 20 22 29 30 31 28 14 19 20 20 22 23 24 24
26 33 30 28 26 25 23 20 19 18 19 19 19 19 18 20 18 20 21 19 19 19 18 19 20 22 23 22 22 23 24 23 26 29 17 8 18 20 17 21 20 20 21
35 28 27 26 26 24 20 17 15 16 18 20 18 21 20 17 15 16 19 18 19 19 19 21 22 23 21 18 18 18 21 25 28 22 14 19 14 14 11 17 19 18 16
39 30 24 22 20 18 17 10 13 17 21 26 25 17 19 18 17 16 17 17 18 21 21 25 21 20 20 18 19 19 20 20 23 15 15 10 13 11 9 12 15 13 15
25 30 27 21 19 20 17 19 18 20 23 24 25 21 18 14 13 13 13 15 17 20 19 20 20 21 21 23 23 23 21 21 18 20 13 7 8 8 8 11 11 8 9
32 24 27 26 26 27 25 25 23 24 29 22 29 19 12 14 11 9 11 13 15 20 19 18 20 22 23 24 22 21 19 18 16 22 14 11 9 10 6 6 10 9 8
30 22 27 28 28 25 21 28 27 34 36 35 22 17 14 15 17 8 10 12 15 18 17 17 18 19 19 18 14 16 22 17 20 11 8 20 17 8 5 4 2 6 7
31 29 25 27 28 29 27 35 37 37 36 27 19 17 15 14 14 11 10 9 14 15 14 15 17 19 14 11 6 4 25 18 10 11 9 17 23 7 2 3 4 5 5
34 28 19 22 27 36 35 38 38 28 27 21 20 20 19 19 10 7 7 3 15 21 23 21 16 17 16 7 14 27 15 17 15 11 5 18 26 8 3 2 1 2 3
34 29 26 28 23 31 39 37 30 30 28 17 22 18 13 25 16 2 4 14 21 23 20 19 14 14 18 9 13 15 15 14 2 7 10 14 23 8 3 3 3 7 6
37 40 29 31 28 30 39 35 31 31 22 23 20 10 2 4 7 16 14 8 13 12 14 5 14 13 14 9 8 17 2 17 13 13 16 15 17 2 2 4 8 11 5
40 41 39 34 23 25 40 33 27 28 23 12 22 13 18 27 17 21 22 16 6 25 38 27 14 17 7 12 7 8 8 18 9 10 12 8 5 6 4 3 9 14 9
36 34 38 33 32 27 29 34 28 24 21 24 14 19 15 11 16 11 13 11 17 3 15 15 13 11 5 7 11 4 4 7 11 10 5 4 10 11 7 6 11 15 12
37 41 50 34 31 28 31 25 23 22 20 23 16 17 10 12 8 15 6 9 5 11 15 9 2 18 20 12 6 8 10 12 27 16 17 12 15 17 14 12 15 18 16
37 39 37 33 31 36 29 30 13 42 15 17 23 16 31 24 17 12 8 4 10 12 5 9 11 9 22 9 5 14 11 8 14 15 5 3 8 11 18 19 19 22 22
40 40 46 33 25 25 23 16 13 15 22 32 11 9 25 14 17 13 4 12 13 3 2 11 27 18 25 10 5 8 3 3 12 19 9 16 24 7 5 18 17 28 34
34 48 42 40 38 24 24 23 17 24 24 18 13 16 11 16 13 12 8 25 16 4 6 7 13 12 21 12 5 3 13 14 13 5 17 18 17 13 14 15 13 18 29
39 38 41 40 32 30 24 22 23 23 13 26 15 23 10 13 17 18 12 28 13 6 16 5 8 18 21 18 24 13 7 2 16 13 14 6 16 20 19 14 7 12 22
45 42 39 47 43 35 28 25 19 15 12 17 25 19 19 17 21 22 11 24 19 8 13 16 11 20 18 12 8 23 11 10 6 6 8 22 19 8 12 3 11 14 21
46 51 42 44 43 39 30 27 20 25 22 26 23 22 13 16 17 13 12 9 15 10 21 13 10 13 5 10 13 28 7 4 6 6 4 5 12 8 10 9 10 14 13
41 51 58 41 45 43 33 24 30 11 19 16 23 16 16 19 14 15 13 18 11 12 14 5 7 7 7 7 11 8 14 2 23 3 8 8 15 12 3 14 13 12 9
41 40 47 52 43 46 39 32 23 20 25 18 26 22 21 14 16 17 7 17 11 9 6 13 11 10 2 9 11 5 10 10 14 13 18 6 15 9 2 8 10 12 7
55 49 47 47 46 41 45 31 30 31 25 19 7 18 22 14 18 13 10 5 13 24 15 11 1 9 10 6 11 5 5 14 9 15 15 5 2 4 13 8 7 8 9
59 54 50 45 46 43 39 40 34 30 22 24 24 19 14 23 12 19 14 6 12 12 18 8 11 5 3 4 6 9 17 15 16 8 6 4 2 17 4 10 4 5 8
Wind_Direction_850mb
159 140 136 134 131 127 126 121 113 108 105 107 102 91 81 93 106 110 110 111 120 116 114 118 119 109 109 110 104 100 96 91 88 87 81 81 91 96 89 92 93 95 102
164 144 136 131 128 123 121 127 119 114 114 117 105 85 84 87 89 105 118 123 118 108 114 116 113 108 107 101 94 91 89 86 82 84 76 64 70 91 93 98 90 97 106
151 142 137 132 122 120 116 116 124 133 128 126 108 98 91 91 96 96 105 118 119 123 127 121 110 111 107 101 95 92 89 93 91 83 72 37 75 86 96 95 101 104 106
154 143 143 133 130 123 121 121 127 139 147 140 125 110 97 106 109 107 106 104 113 114 120 115 113 111 109 106 101 95 95 101 96 84 66 98 68 78 94 108 114 120 123
140 157 142 142 137 128 122 118 124 135 156 147 127 113 106 111 116 116 125 127 125 122 122 125 121 116 115 104 100 99 107 102 89 89 96 61 55 59 101 111 112 126 134
145 168 148 160 153 142 139 140 130 146 151 145 134 115 104 111 119 123 126 134 135 136 132 127 125 122 111 102 89 91 107 105 96 102 96 57 49 70 100 125 128 134 141
183 141 141 151 147 145 134 129 120 155 151 150 153 120 116 123 138 146 150 146 150 143 134 132 135 115 110 95 93 91 97 85 89 130 131 35 56 91 109 129 134 145 148
143 135 143 142 142 136 129 132 121 129 143 156 143 124 129 134 122 158 148 154 148 144 135 130 125 114 104 98 99 95 103 104 116 76 143 45 69 74 83 130 140 154 164
140 144 139 146 150 151 144 145 134 129 139 138 128 124 137 145 157 157 128 149 147 159 152 132 116 116 115 104 107 119 117 93 82 118 86 44 40 42 81 75 37 157 177
135 142 146 141 144 146 139 151 142 140 142 132 131 130 135 136 119 116 117 115 137 151 157 158 155 145 144 124 29 171 122 120 133 129 153 13 10 18 355 7 302 227 205
150 145 140 134 136 155 144 142 145 148 133 134 131 127 141 106 80 71 120 208 144 139 156 156 155 154 176 192 267 315 171 138 102 55 287 303 329 334 38 47 310 318 261
156 154 168 147 156 139 163 156 147 124 126 133 133 138 168 190 133 176 158 147 141 150 142 131 108 197 196 255 304 15 207 239 213 3 247 291 324 336 83 112 61 16 327
162 161 180 145 170 156 163 152 135 137 139 141 151 195 275 282 201 197 133 128 168 144 163 104 74 185 190 322 300 37 161 228 253 326 260 298 315 351 81 45 13 5 8
179 187 164 159 159 144 162 153 144 137 151 124 160 169 192 186 226 235 227 275 284 239 159 68 110 117 138 5 333 357 44 108 72 247 263 287 207 120 114 22 3 2 6
169 153 159 166 158 159 144 145 153 155 198 205 199 175 162 158 223 249 227 267 48 290 217 25 97 91 89 136 181 193 128 197 184 214 206 125 107 91 86 33 15 8 5
168 166 168 160 187 185 168 170 150 177 177 150 176 216 229 157 187 275 156 25 291 342 41 226 127 96 114 95 288 103 95 170 161 192 224 64 65 75 78 49 19 17 21
164 170 171 162 183 177 164 157 179 163 155 152 190 237 173 202 203 202 315 245 238 216 247 295 285 224 119 92 347 55 9 26 140 129 24 148 82 71 74 48 28 23 28
170 170 170 166 163 159 156 164 149 213 175 163 210 233 184 196 193 187 291 284 288 139 261 322 313 47 74 58 11 39 272 47 90 112 198 168 167 120 54 66 40 31 30
165 169 172 181 167 177 179 173 143 169 166 141 191 230 227 204 208 184 213 269 253 230 299 232 280 30 44 26 344 41 310 355 355 304 183 178 141 23 62 78 36 23 34
165 166 176 179 164 185 186 171 160 174 184 145 176 206 240 217 230 204 210 264 257 248 295 246 242 26 56 8 14 70 244 247 326 357 341 23 87 54 32 60 360 19 27
168 173 183 177 190 187 174 163 156 181 171 163 204 217 244 218 254 236 218 273 267 257 291 309 339 351 19 3 89 227 296 256 211 201 336 28 84 119 118 295 52 27 7
178 167 181 188 194 187 178 175 223 218 216 205 219 224 233 218 225 233 235 257 286 257 307 315 307 328 314 77 97 73 28 3 358 84 204 268 153 140 122 19 73 74 21
170 182 185 186 189 185 170 195 211 215 202 218 171 219 213 228 223 246 248 193 242 246 272 301 287 306 326 33 14 348 177 128 28 120 156 210 109 136 147 47 116 77 56
183 192 181 181 196 180 182 188 216 206 211 233 213 224 202 218 204 262 247 204 200 173 230 246 199 279 167 70 62 174 37 51 106 198 148 28 75 129 145 116 46 82 61
184 188 198 195 198 194 190 186 204 210 208 209 214 217 194 243 212 225 253 203 175 192 191 287 14 216 192 191 18 77 12 16 111 86 83 110 332 81 39 102 84 71 90
185 186 196 212 211 198 208 199 200 207 207 204 222 192 241 244 273 215 250 190 194 231 202 247 262 205 257 285 134 103 2 20 78 34 46 36 315 159 60 105 148 111 148